owner,sensor,date,latitude,longitude,vertical_datum,sea_water_temperature,qcFlag 
WAVCIS,ioos:station:WAVCIS:CSI03:1,2009-12-01T00:00:00Z,29.4412,-92.0613,10.0,-0.833,11144222 
WAVCIS,ioos:station:WAVCIS:CSI03:1,2009-12-01T01:00:00Z,29.4412,-92.0613,10.0,-0.854,11144222 
WAVCIS,ioos:station:WAVCIS:CSI03:1,2009-12-01T02:00:00Z,29.4412,-92.0613,10.0,-0.886,11144222 
WAVCIS,ioos:station:WAVCIS:CSI03:1,2009-12-01T03:00:00Z,29.4412,-92.0613,10.0,-0.879,11144222 
WAVCIS,ioos:station:WAVCIS:CSI03:1,2009-12-01T04:00:00Z,29.4412,-92.0613,10.0,-0.928,11144222 
WAVCIS,ioos:station:WAVCIS:CSI03:1,2009-12-01T05:00:00Z,29.4412,-92.0613,10.0,-0.88,11144222 
WAVCIS,ioos:station:WAVCIS:CSI03:1,2009-12-01T06:00:00Z,29.4412,-92.0613,10.0,-0.918,11144222 
WAVCIS,ioos:station:WAVCIS:CSI03:1,2009-12-01T07:00:00Z,29.4412,-92.0613,10.0,-0.992,11144222 
WAVCIS,ioos:station:WAVCIS:CSI03:1,2009-12-01T08:00:00Z,29.4412,-92.0613,10.0,-1.085,11144222 
WAVCIS,ioos:station:WAVCIS:CSI03:1,2009-12-01T09:00:00Z,29.4412,-92.0613,10.0,-1.153,11144222 
WAVCIS,ioos:station:WAVCIS:CSI03:1,2009-12-01T10:00:00Z,29.4412,-92.0613,10.0,-1.222,11144222 
WAVCIS,ioos:station:WAVCIS:CSI03:1,2009-12-01T11:00:00Z,29.4412,-92.0613,10.0,-1.019,11144222 
WAVCIS,ioos:station:WAVCIS:CSI03:1,2009-12-01T12:00:00Z,29.4412,-92.0613,10.0,-1.137,11144222 
WAVCIS,ioos:station:WAVCIS:CSI03:1,2009-12-01T13:00:00Z,29.4412,-92.0613,10.0,-1.35,11144222 
WAVCIS,ioos:station:WAVCIS:CSI03:1,2009-12-01T14:00:00Z,29.4412,-92.0613,10.0,-1.517,11144222 
WAVCIS,ioos:station:WAVCIS:CSI03:1,2009-12-01T15:00:00Z,29.4412,-92.0613,10.0,-1.667,11144222 
WAVCIS,ioos:station:WAVCIS:CSI03:1,2009-12-01T16:00:00Z,29.4412,-92.0613,10.0,-1.792,11144222 
WAVCIS,ioos:station:WAVCIS:CSI03:1,2009-12-01T17:00:00Z,29.4412,-92.0613,10.0,-1.768,11144222 
WAVCIS,ioos:station:WAVCIS:CSI03:1,2009-12-01T18:00:00Z,29.4412,-92.0613,10.0,-1.714,11144222 
WAVCIS,ioos:station:WAVCIS:CSI03:1,2009-12-01T19:00:00Z,29.4412,-92.0613,10.0,-1.788,11144222 
WAVCIS,ioos:station:WAVCIS:CSI03:1,2009-12-01T20:00:00Z,29.4412,-92.0613,10.0,-1.856,11144222 
WAVCIS,ioos:station:WAVCIS:CSI03:1,2009-12-01T21:00:00Z,29.4412,-92.0613,10.0,-1.917,11144222 
WAVCIS,ioos:station:WAVCIS:CSI03:1,2009-12-01T22:00:00Z,29.4412,-92.0613,10.0,-2.089,11144222 
WAVCIS,ioos:station:WAVCIS:CSI03:1,2009-12-01T23:00:00Z,29.4412,-92.0613,10.0,-1.987,11144222 
WAVCIS,ioos:station:WAVCIS:CSI03:1,2009-12-02T00:00:00Z,29.4412,-92.0613,10.0,-1.925,11144222 
WAVCIS,ioos:station:WAVCIS:CSI03:1,2009-12-02T01:00:00Z,29.4412,-92.0613,10.0,-1.985,11144222 
WAVCIS,ioos:station:WAVCIS:CSI03:1,2009-12-02T02:00:00Z,29.4412,-92.0613,10.0,-2.115,11144222 
WAVCIS,ioos:station:WAVCIS:CSI03:1,2009-12-02T03:00:00Z,29.4412,-92.0613,10.0,-2.181,11144222 
WAVCIS,ioos:station:WAVCIS:CSI03:1,2009-12-02T04:00:00Z,29.4412,-92.0613,10.0,-2.151,11144222 
WAVCIS,ioos:station:WAVCIS:CSI03:1,2009-12-02T05:00:00Z,29.4412,-92.0613,10.0,-2.202,11144222 
WAVCIS,ioos:station:WAVCIS:CSI03:1,2009-12-02T06:00:00Z,29.4412,-92.0613,10.0,-2.363,11144222 
WAVCIS,ioos:station:WAVCIS:CSI03:1,2009-12-02T07:00:00Z,29.4412,-92.0613,10.0,-2.197,11144222 
WAVCIS,ioos:station:WAVCIS:CSI03:1,2009-12-02T08:00:00Z,29.4412,-92.0613,10.0,-2.162,11144222 
WAVCIS,ioos:station:WAVCIS:CSI03:1,2009-12-02T09:00:00Z,29.4412,-92.0613,10.0,-2.103,11144222 
WAVCIS,ioos:station:WAVCIS:CSI03:1,2009-12-02T10:00:00Z,29.4412,-92.0613,10.0,-2.155,11144222 
WAVCIS,ioos:station:WAVCIS:CSI03:1,2009-12-02T11:00:00Z,29.4412,-92.0613,10.0,-2.098,11144222 
WAVCIS,ioos:station:WAVCIS:CSI03:1,2009-12-02T12:00:00Z,29.4412,-92.0613,10.0,-2.216,11144222 
WAVCIS,ioos:station:WAVCIS:CSI03:1,2009-12-02T13:00:00Z,29.4412,-92.0613,10.0,-2.22,11144222 
WAVCIS,ioos:station:WAVCIS:CSI03:1,2009-12-02T14:00:00Z,29.4412,-92.0613,10.0,-2.183,11144222 
WAVCIS,ioos:station:WAVCIS:CSI03:1,2009-12-02T15:00:00Z,29.4412,-92.0613,10.0,-2.141,11144222 
WAVCIS,ioos:station:WAVCIS:CSI03:1,2009-12-02T16:00:00Z,29.4412,-92.0613,10.0,-2.096,11144222 
WAVCIS,ioos:station:WAVCIS:CSI03:1,2009-12-02T17:00:00Z,29.4412,-92.0613,10.0,-2.002,11144222 
WAVCIS,ioos:station:WAVCIS:CSI03:1,2009-12-02T18:00:00Z,29.4412,-92.0613,10.0,-1.856,11144222 
WAVCIS,ioos:station:WAVCIS:CSI03:1,2009-12-02T19:00:00Z,29.4412,-92.0613,10.0,-1.865,11144222 
WAVCIS,ioos:station:WAVCIS:CSI03:1,2009-12-02T20:00:00Z,29.4412,-92.0613,10.0,-1.865,11144222 
WAVCIS,ioos:station:WAVCIS:CSI03:1,2009-12-02T21:00:00Z,29.4412,-92.0613,10.0,-1.85,11144222 
WAVCIS,ioos:station:WAVCIS:CSI03:1,2009-12-02T22:00:00Z,29.4412,-92.0613,10.0,-1.802,11144222 
WAVCIS,ioos:station:WAVCIS:CSI03:1,2009-12-02T23:00:00Z,29.4412,-92.0613,10.0,-1.942,11144222 
WAVCIS,ioos:station:WAVCIS:CSI03:1,2009-12-03T00:00:00Z,29.4412,-92.0613,10.0,-2.097,11144222 
WAVCIS,ioos:station:WAVCIS:CSI03:1,2009-12-03T01:00:00Z,29.4412,-92.0613,10.0,-2.179,11144222 
WAVCIS,ioos:station:WAVCIS:CSI03:1,2009-12-03T02:00:00Z,29.4412,-92.0613,10.0,-2.396,11144222 
WAVCIS,ioos:station:WAVCIS:CSI03:1,2009-12-03T03:00:00Z,29.4412,-92.0613,10.0,-2.386,11144222 
WAVCIS,ioos:station:WAVCIS:CSI03:1,2009-12-03T04:00:00Z,29.4412,-92.0613,10.0,-2.468,11144222 
WAVCIS,ioos:station:WAVCIS:CSI03:1,2009-12-03T05:00:00Z,29.4412,-92.0613,10.0,-2.535,11144222 
WAVCIS,ioos:station:WAVCIS:CSI03:1,2009-12-03T06:00:00Z,29.4412,-92.0613,10.0,-2.574,11144222 
WAVCIS,ioos:station:WAVCIS:CSI03:1,2009-12-03T07:00:00Z,29.4412,-92.0613,10.0,-2.511,11144222 
WAVCIS,ioos:station:WAVCIS:CSI03:1,2009-12-03T08:00:00Z,29.4412,-92.0613,10.0,-2.57,11144222 
WAVCIS,ioos:station:WAVCIS:CSI03:1,2009-12-03T09:00:00Z,29.4412,-92.0613,10.0,-2.492,11144222 
WAVCIS,ioos:station:WAVCIS:CSI03:1,2009-12-03T10:00:00Z,29.4412,-92.0613,10.0,-2.69,11144222 
WAVCIS,ioos:station:WAVCIS:CSI03:1,2009-12-03T11:00:00Z,29.4412,-92.0613,10.0,-2.835,11144222 
WAVCIS,ioos:station:WAVCIS:CSI03:1,2009-12-03T12:00:00Z,29.4412,-92.0613,10.0,-3.043,11144222 
WAVCIS,ioos:station:WAVCIS:CSI03:1,2009-12-03T13:00:00Z,29.4412,-92.0613,10.0,-3.115,11144222 
WAVCIS,ioos:station:WAVCIS:CSI03:1,2009-12-03T14:00:00Z,29.4412,-92.0613,10.0,-3.208,11144222 
WAVCIS,ioos:station:WAVCIS:CSI03:1,2009-12-03T15:00:00Z,29.4412,-92.0613,10.0,-3.238,11144222 
WAVCIS,ioos:station:WAVCIS:CSI03:1,2009-12-03T16:00:00Z,29.4412,-92.0613,10.0,-3.069,11144222 
WAVCIS,ioos:station:WAVCIS:CSI03:1,2009-12-03T17:00:00Z,29.4412,-92.0613,10.0,-2.89,11144222 
WAVCIS,ioos:station:WAVCIS:CSI03:1,2009-12-03T18:00:00Z,29.4412,-92.0613,10.0,-2.905,11144222 
WAVCIS,ioos:station:WAVCIS:CSI03:1,2009-12-03T19:00:00Z,29.4412,-92.0613,10.0,-2.921,11144222 
WAVCIS,ioos:station:WAVCIS:CSI03:1,2009-12-03T20:00:00Z,29.4412,-92.0613,10.0,-2.867,11144222 
WAVCIS,ioos:station:WAVCIS:CSI03:1,2009-12-03T21:00:00Z,29.4412,-92.0613,10.0,-2.703,11144222 
WAVCIS,ioos:station:WAVCIS:CSI03:1,2009-12-03T22:00:00Z,29.4412,-92.0613,10.0,-2.553,11144222 
WAVCIS,ioos:station:WAVCIS:CSI03:1,2009-12-03T23:00:00Z,29.4412,-92.0613,10.0,-2.47,11144222 
WAVCIS,ioos:station:WAVCIS:CSI03:1,2009-12-04T00:00:00Z,29.4412,-92.0613,10.0,-2.47,11144222 
WAVCIS,ioos:station:WAVCIS:CSI03:1,2009-12-04T01:00:00Z,29.4412,-92.0613,10.0,-2.576,11144222 
WAVCIS,ioos:station:WAVCIS:CSI03:1,2009-12-04T02:00:00Z,29.4412,-92.0613,10.0,-2.756,11144222 
WAVCIS,ioos:station:WAVCIS:CSI03:1,2009-12-04T03:00:00Z,29.4412,-92.0613,10.0,-2.824,11144222 
WAVCIS,ioos:station:WAVCIS:CSI03:1,2009-12-04T04:00:00Z,29.4412,-92.0613,10.0,-2.828,11144222 
WAVCIS,ioos:station:WAVCIS:CSI03:1,2009-12-04T05:00:00Z,29.4412,-92.0613,10.0,-2.93,11144222 
WAVCIS,ioos:station:WAVCIS:CSI03:1,2009-12-04T06:00:00Z,29.4412,-92.0613,10.0,-3.02,11144222 
WAVCIS,ioos:station:WAVCIS:CSI03:1,2009-12-04T07:00:00Z,29.4412,-92.0613,10.0,-2.969,11144222 
WAVCIS,ioos:station:WAVCIS:CSI03:1,2009-12-04T08:00:00Z,29.4412,-92.0613,10.0,-3.052,11144222 
WAVCIS,ioos:station:WAVCIS:CSI03:1,2009-12-04T09:00:00Z,29.4412,-92.0613,10.0,-3.009,11144222 
WAVCIS,ioos:station:WAVCIS:CSI03:1,2009-12-04T10:00:00Z,29.4412,-92.0613,10.0,-3.101,11144222 
WAVCIS,ioos:station:WAVCIS:CSI03:1,2009-12-04T11:00:00Z,29.4412,-92.0613,10.0,-3.272,11144222 
WAVCIS,ioos:station:WAVCIS:CSI03:1,2009-12-04T12:00:00Z,29.4412,-92.0613,10.0,-3.441,11144222 
WAVCIS,ioos:station:WAVCIS:CSI03:1,2009-12-04T13:00:00Z,29.4412,-92.0613,10.0,-3.706,11144222 
WAVCIS,ioos:station:WAVCIS:CSI03:1,2009-12-04T14:00:00Z,29.4412,-92.0613,10.0,-3.81,11144222 
WAVCIS,ioos:station:WAVCIS:CSI03:1,2009-12-04T15:00:00Z,29.4412,-92.0613,10.0,-3.832,11144222 
WAVCIS,ioos:station:WAVCIS:CSI03:1,2009-12-04T16:00:00Z,29.4412,-92.0613,10.0,-3.886,11144222 
WAVCIS,ioos:station:WAVCIS:CSI03:1,2009-12-04T17:00:00Z,29.4412,-92.0613,10.0,-3.904,11144222 
WAVCIS,ioos:station:WAVCIS:CSI03:1,2009-12-04T18:00:00Z,29.4412,-92.0613,10.0,-3.869,11144222 
WAVCIS,ioos:station:WAVCIS:CSI03:1,2009-12-04T19:00:00Z,29.4412,-92.0613,10.0,-3.825,11144222 
WAVCIS,ioos:station:WAVCIS:CSI03:1,2009-12-04T20:00:00Z,29.4412,-92.0613,10.0,-3.829,11144222 
WAVCIS,ioos:station:WAVCIS:CSI03:1,2009-12-04T21:00:00Z,29.4412,-92.0613,10.0,-3.79,11144222 
WAVCIS,ioos:station:WAVCIS:CSI03:1,2009-12-04T22:00:00Z,29.4412,-92.0613,10.0,-3.638,11144222 
WAVCIS,ioos:station:WAVCIS:CSI03:1,2009-12-04T23:00:00Z,29.4412,-92.0613,10.0,-3.569,11144222 
WAVCIS,ioos:station:WAVCIS:CSI03:1,2009-12-05T00:00:00Z,29.4412,-92.0613,10.0,-3.639,11144222 
WAVCIS,ioos:station:WAVCIS:CSI03:1,2009-12-05T01:00:00Z,29.4412,-92.0613,10.0,-3.793,11144222 
WAVCIS,ioos:station:WAVCIS:CSI03:1,2009-12-05T02:00:00Z,29.4412,-92.0613,10.0,-3.995,11144222 
WAVCIS,ioos:station:WAVCIS:CSI03:1,2009-12-05T03:00:00Z,29.4412,-92.0613,10.0,-4.169,11144222 
WAVCIS,ioos:station:WAVCIS:CSI03:1,2009-12-05T04:00:00Z,29.4412,-92.0613,10.0,-4.183,11144222 
WAVCIS,ioos:station:WAVCIS:CSI03:1,2009-12-05T05:00:00Z,29.4412,-92.0613,10.0,-4.205,11144222 
WAVCIS,ioos:station:WAVCIS:CSI03:1,2009-12-05T06:00:00Z,29.4412,-92.0613,10.0,-4.379,11144222 
WAVCIS,ioos:station:WAVCIS:CSI03:1,2009-12-05T07:00:00Z,29.4412,-92.0613,10.0,-4.474,11144222 
WAVCIS,ioos:station:WAVCIS:CSI03:1,2009-12-05T08:00:00Z,29.4412,-92.0613,10.0,-4.558,11144222 
WAVCIS,ioos:station:WAVCIS:CSI03:1,2009-12-05T09:00:00Z,29.4412,-92.0613,10.0,-4.683,11144222 
WAVCIS,ioos:station:WAVCIS:CSI03:1,2009-12-05T10:00:00Z,29.4412,-92.0613,10.0,-4.839,11144222 
WAVCIS,ioos:station:WAVCIS:CSI03:1,2009-12-05T11:00:00Z,29.4412,-92.0613,10.0,-4.806,11144222 
WAVCIS,ioos:station:WAVCIS:CSI03:1,2009-12-05T12:00:00Z,29.4412,-92.0613,10.0,-4.935,11144222 
WAVCIS,ioos:station:WAVCIS:CSI03:1,2009-12-05T13:00:00Z,29.4412,-92.0613,10.0,-5.19,11144222 
WAVCIS,ioos:station:WAVCIS:CSI03:1,2009-12-05T14:00:00Z,29.4412,-92.0613,10.0,-5.538,11144222 
WAVCIS,ioos:station:WAVCIS:CSI03:1,2009-12-05T15:00:00Z,29.4412,-92.0613,10.0,-5.782,11144222 
WAVCIS,ioos:station:WAVCIS:CSI03:1,2009-12-05T16:00:00Z,29.4412,-92.0613,10.0,-5.803,11144222 
WAVCIS,ioos:station:WAVCIS:CSI03:1,2009-12-05T17:00:00Z,29.4412,-92.0613,10.0,-5.798,11144222 
WAVCIS,ioos:station:WAVCIS:CSI03:1,2009-12-05T18:00:00Z,29.4412,-92.0613,10.0,-5.666,11144222 
WAVCIS,ioos:station:WAVCIS:CSI03:1,2009-12-05T19:00:00Z,29.4412,-92.0613,10.0,-5.597,11144222 
WAVCIS,ioos:station:WAVCIS:CSI03:1,2009-12-05T20:00:00Z,29.4412,-92.0613,10.0,-5.67,11144222 
WAVCIS,ioos:station:WAVCIS:CSI03:1,2009-12-05T21:00:00Z,29.4412,-92.0613,10.0,-5.637,11144222 
WAVCIS,ioos:station:WAVCIS:CSI03:1,2009-12-05T22:00:00Z,29.4412,-92.0613,10.0,-5.584,11144222 
WAVCIS,ioos:station:WAVCIS:CSI03:1,2009-12-05T23:00:00Z,29.4412,-92.0613,10.0,-5.589,11144222 
WAVCIS,ioos:station:WAVCIS:CSI03:1,2009-12-06T00:00:00Z,29.4412,-92.0613,10.0,-5.633,11144222 
WAVCIS,ioos:station:WAVCIS:CSI03:1,2009-12-06T01:00:00Z,29.4412,-92.0613,10.0,-5.586,11144222 
WAVCIS,ioos:station:WAVCIS:CSI03:1,2009-12-06T02:00:00Z,29.4412,-92.0613,10.0,-5.621,11144222 
WAVCIS,ioos:station:WAVCIS:CSI03:1,2009-12-06T03:00:00Z,29.4412,-92.0613,10.0,-5.688,11144222 
WAVCIS,ioos:station:WAVCIS:CSI03:1,2009-12-06T04:00:00Z,29.4412,-92.0613,10.0,-5.73,11144222 
WAVCIS,ioos:station:WAVCIS:CSI03:1,2009-12-06T05:00:00Z,29.4412,-92.0613,10.0,-5.686,11144222 
WAVCIS,ioos:station:WAVCIS:CSI03:1,2009-12-06T06:00:00Z,29.4412,-92.0613,10.0,-5.791,11144222 
WAVCIS,ioos:station:WAVCIS:CSI03:1,2009-12-06T07:00:00Z,29.4412,-92.0613,10.0,-5.706,11144222 
WAVCIS,ioos:station:WAVCIS:CSI03:1,2009-12-06T08:00:00Z,29.4412,-92.0613,10.0,-5.733,11144222 
WAVCIS,ioos:station:WAVCIS:CSI03:1,2009-12-06T09:00:00Z,29.4412,-92.0613,10.0,-5.597,11144222 
WAVCIS,ioos:station:WAVCIS:CSI03:1,2009-12-06T10:00:00Z,29.4412,-92.0613,10.0,-5.688,11144222 
WAVCIS,ioos:station:WAVCIS:CSI03:1,2009-12-06T11:00:00Z,29.4412,-92.0613,10.0,-5.671,11144222 
WAVCIS,ioos:station:WAVCIS:CSI03:1,2009-12-06T12:00:00Z,29.4412,-92.0613,10.0,-5.739,11144222 
WAVCIS,ioos:station:WAVCIS:CSI03:1,2009-12-06T13:00:00Z,29.4412,-92.0613,10.0,-5.674,11144222 
WAVCIS,ioos:station:WAVCIS:CSI03:1,2009-12-06T14:00:00Z,29.4412,-92.0613,10.0,-5.58,11144222 
WAVCIS,ioos:station:WAVCIS:CSI03:1,2009-12-06T15:00:00Z,29.4412,-92.0613,10.0,-5.656,11144222 
WAVCIS,ioos:station:WAVCIS:CSI03:1,2009-12-06T16:00:00Z,29.4412,-92.0613,10.0,-5.74,11144222 
WAVCIS,ioos:station:WAVCIS:CSI03:1,2009-12-06T17:00:00Z,29.4412,-92.0613,10.0,-5.712,11144222 
WAVCIS,ioos:station:WAVCIS:CSI03:1,2009-12-06T18:00:00Z,29.4412,-92.0613,10.0,-5.767,11144222 
WAVCIS,ioos:station:WAVCIS:CSI03:1,2009-12-06T19:00:00Z,29.4412,-92.0613,10.0,-5.81,11144222 
WAVCIS,ioos:station:WAVCIS:CSI03:1,2009-12-06T20:00:00Z,29.4412,-92.0613,10.0,-5.657,11144222 
WAVCIS,ioos:station:WAVCIS:CSI03:1,2009-12-06T21:00:00Z,29.4412,-92.0613,10.0,-5.574,11144222 
WAVCIS,ioos:station:WAVCIS:CSI03:1,2009-12-06T22:00:00Z,29.4412,-92.0613,10.0,-5.545,11144222 
WAVCIS,ioos:station:WAVCIS:CSI03:1,2009-12-06T23:00:00Z,29.4412,-92.0613,10.0,-5.409,11144222 
WAVCIS,ioos:station:WAVCIS:CSI03:1,2009-12-07T00:00:00Z,29.4412,-92.0613,10.0,-5.42,11144222 
WAVCIS,ioos:station:WAVCIS:CSI03:1,2009-12-07T01:00:00Z,29.4412,-92.0613,10.0,-5.331,11144222 
WAVCIS,ioos:station:WAVCIS:CSI03:1,2009-12-07T02:00:00Z,29.4412,-92.0613,10.0,-5.292,11144222 
WAVCIS,ioos:station:WAVCIS:CSI03:1,2009-12-07T03:00:00Z,29.4412,-92.0613,10.0,-5.208,11144222 
WAVCIS,ioos:station:WAVCIS:CSI03:1,2009-12-07T04:00:00Z,29.4412,-92.0613,10.0,-5.078,11144222 
WAVCIS,ioos:station:WAVCIS:CSI03:1,2009-12-07T05:00:00Z,29.4412,-92.0613,10.0,-5.171,11144222 
WAVCIS,ioos:station:WAVCIS:CSI03:1,2009-12-07T06:00:00Z,29.4412,-92.0613,10.0,-5.241,11144222 
WAVCIS,ioos:station:WAVCIS:CSI03:1,2009-12-07T07:00:00Z,29.4412,-92.0613,10.0,-5.248,11144222 
WAVCIS,ioos:station:WAVCIS:CSI03:1,2009-12-07T08:00:00Z,29.4412,-92.0613,10.0,-5.063,11144222 
WAVCIS,ioos:station:WAVCIS:CSI03:1,2009-12-07T09:00:00Z,29.4412,-92.0613,10.0,-5.03,11144222 
WAVCIS,ioos:station:WAVCIS:CSI03:1,2009-12-07T10:00:00Z,29.4412,-92.0613,10.0,-4.984,11144222 
WAVCIS,ioos:station:WAVCIS:CSI03:1,2009-12-07T11:00:00Z,29.4412,-92.0613,10.0,-4.88,11144222 
WAVCIS,ioos:station:WAVCIS:CSI03:1,2009-12-07T12:00:00Z,29.4412,-92.0613,10.0,-4.866,11144222 
WAVCIS,ioos:station:WAVCIS:CSI03:1,2009-12-07T13:00:00Z,29.4412,-92.0613,10.0,-4.771,11144222 
WAVCIS,ioos:station:WAVCIS:CSI03:1,2009-12-07T14:00:00Z,29.4412,-92.0613,10.0,-4.753,11144222 
WAVCIS,ioos:station:WAVCIS:CSI03:1,2009-12-07T15:00:00Z,29.4412,-92.0613,10.0,-4.766,11144222 
WAVCIS,ioos:station:WAVCIS:CSI03:1,2009-12-07T16:00:00Z,29.4412,-92.0613,10.0,-4.729,11144222 
WAVCIS,ioos:station:WAVCIS:CSI03:1,2009-12-07T17:00:00Z,29.4412,-92.0613,10.0,-4.772,11144222 
WAVCIS,ioos:station:WAVCIS:CSI03:1,2009-12-07T18:00:00Z,29.4412,-92.0613,10.0,-4.393,11144222 
WAVCIS,ioos:station:WAVCIS:CSI03:1,2009-12-07T19:00:00Z,29.4412,-92.0613,10.0,-4.366,11144222 
WAVCIS,ioos:station:WAVCIS:CSI03:1,2009-12-07T20:00:00Z,29.4412,-92.0613,10.0,-4.408,11144222 
WAVCIS,ioos:station:WAVCIS:CSI03:1,2009-12-07T21:00:00Z,29.4412,-92.0613,10.0,-4.401,11144222 
WAVCIS,ioos:station:WAVCIS:CSI03:1,2009-12-07T22:00:00Z,29.4412,-92.0613,10.0,-4.479,11144222 
WAVCIS,ioos:station:WAVCIS:CSI03:1,2009-12-07T23:00:00Z,29.4412,-92.0613,10.0,-4.59,11144222 
WAVCIS,ioos:station:WAVCIS:CSI03:1,2009-12-08T00:00:00Z,29.4412,-92.0613,10.0,-4.517,11144222 
WAVCIS,ioos:station:WAVCIS:CSI03:1,2009-12-08T01:00:00Z,29.4412,-92.0613,10.0,-4.602,11144222 
WAVCIS,ioos:station:WAVCIS:CSI03:1,2009-12-08T02:00:00Z,29.4412,-92.0613,10.0,-4.677,11144222 
WAVCIS,ioos:station:WAVCIS:CSI03:1,2009-12-08T03:00:00Z,29.4412,-92.0613,10.0,-4.705,11144222 
WAVCIS,ioos:station:WAVCIS:CSI03:1,2009-12-08T04:00:00Z,29.4412,-92.0613,10.0,-4.763,11144222 
WAVCIS,ioos:station:WAVCIS:CSI03:1,2009-12-08T05:00:00Z,29.4412,-92.0613,10.0,-4.739,11144222 
WAVCIS,ioos:station:WAVCIS:CSI03:1,2009-12-08T06:00:00Z,29.4412,-92.0613,10.0,-4.668,11144222 
WAVCIS,ioos:station:WAVCIS:CSI03:1,2009-12-08T07:00:00Z,29.4412,-92.0613,10.0,-4.628,11144222 
WAVCIS,ioos:station:WAVCIS:CSI03:1,2009-12-08T08:00:00Z,29.4412,-92.0613,10.0,-4.573,11144222 
WAVCIS,ioos:station:WAVCIS:CSI03:1,2009-12-08T09:00:00Z,29.4412,-92.0613,10.0,-4.61,11144222 
WAVCIS,ioos:station:WAVCIS:CSI03:1,2009-12-08T10:00:00Z,29.4412,-92.0613,10.0,-4.593,11144222 
WAVCIS,ioos:station:WAVCIS:CSI03:1,2009-12-08T11:00:00Z,29.4412,-92.0613,10.0,-4.57,11144222 
WAVCIS,ioos:station:WAVCIS:CSI03:1,2009-12-08T12:00:00Z,29.4412,-92.0613,10.0,-4.633,11144222 
WAVCIS,ioos:station:WAVCIS:CSI03:1,2009-12-08T13:00:00Z,29.4412,-92.0613,10.0,-4.515,11144222 
WAVCIS,ioos:station:WAVCIS:CSI03:1,2009-12-08T14:00:00Z,29.4412,-92.0613,10.0,-4.483,11144222 
WAVCIS,ioos:station:WAVCIS:CSI03:1,2009-12-08T15:00:00Z,29.4412,-92.0613,10.0,-4.472,11144222 
WAVCIS,ioos:station:WAVCIS:CSI03:1,2009-12-08T16:00:00Z,29.4412,-92.0613,10.0,-4.394,11144222 
WAVCIS,ioos:station:WAVCIS:CSI03:1,2009-12-08T17:00:00Z,29.4412,-92.0613,10.0,-4.368,11144222 
WAVCIS,ioos:station:WAVCIS:CSI03:1,2009-12-08T18:00:00Z,29.4412,-92.0613,10.0,-4.256,11144222 
WAVCIS,ioos:station:WAVCIS:CSI03:1,2009-12-08T19:00:00Z,29.4412,-92.0613,10.0,-4.191,11144222 
WAVCIS,ioos:station:WAVCIS:CSI03:1,2009-12-08T20:00:00Z,29.4412,-92.0613,10.0,-3.954,11144222 
WAVCIS,ioos:station:WAVCIS:CSI03:1,2009-12-08T21:00:00Z,29.4412,-92.0613,10.0,-3.893,11144222 
WAVCIS,ioos:station:WAVCIS:CSI03:1,2009-12-08T22:00:00Z,29.4412,-92.0613,10.0,-3.897,11144222 
WAVCIS,ioos:station:WAVCIS:CSI03:1,2009-12-08T23:00:00Z,29.4412,-92.0613,10.0,-3.798,11144222 
WAVCIS,ioos:station:WAVCIS:CSI03:1,2009-12-09T00:00:00Z,29.4412,-92.0613,10.0,-3.741,11144222 
WAVCIS,ioos:station:WAVCIS:CSI03:1,2009-12-09T01:00:00Z,29.4412,-92.0613,10.0,-3.491,11144222 
WAVCIS,ioos:station:WAVCIS:CSI03:1,2009-12-09T02:00:00Z,29.4412,-92.0613,10.0,-3.423,11144222 
WAVCIS,ioos:station:WAVCIS:CSI03:1,2009-12-09T03:00:00Z,29.4412,-92.0613,10.0,-3.339,11144222 
WAVCIS,ioos:station:WAVCIS:CSI03:1,2009-12-09T04:00:00Z,29.4412,-92.0613,10.0,-3.383,11144222 
WAVCIS,ioos:station:WAVCIS:CSI03:1,2009-12-09T05:00:00Z,29.4412,-92.0613,10.0,-3.375,11144222 
WAVCIS,ioos:station:WAVCIS:CSI03:1,2009-12-09T06:00:00Z,29.4412,-92.0613,10.0,-3.394,11144222 
WAVCIS,ioos:station:WAVCIS:CSI03:1,2009-12-09T07:00:00Z,29.4412,-92.0613,10.0,-3.263,11144222 
WAVCIS,ioos:station:WAVCIS:CSI03:1,2009-12-09T08:00:00Z,29.4412,-92.0613,10.0,-3.159,11144222 
WAVCIS,ioos:station:WAVCIS:CSI03:1,2009-12-09T09:00:00Z,29.4412,-92.0613,10.0,-3.109,11144222 
WAVCIS,ioos:station:WAVCIS:CSI03:1,2009-12-09T10:00:00Z,29.4412,-92.0613,10.0,-2.997,11144222 
WAVCIS,ioos:station:WAVCIS:CSI03:1,2009-12-09T11:00:00Z,29.4412,-92.0613,10.0,-2.905,11144222 
WAVCIS,ioos:station:WAVCIS:CSI03:1,2009-12-09T12:00:00Z,29.4412,-92.0613,10.0,-2.956,11144222 
WAVCIS,ioos:station:WAVCIS:CSI03:1,2009-12-09T13:00:00Z,29.4412,-92.0613,10.0,-2.883,11144222 
WAVCIS,ioos:station:WAVCIS:CSI03:1,2009-12-09T14:00:00Z,29.4412,-92.0613,10.0,-2.874,11144222 
WAVCIS,ioos:station:WAVCIS:CSI03:1,2009-12-09T15:00:00Z,29.4412,-92.0613,10.0,-2.795,11144222 
WAVCIS,ioos:station:WAVCIS:CSI03:1,2009-12-09T16:00:00Z,29.4412,-92.0613,10.0,-2.84,11144222 
WAVCIS,ioos:station:WAVCIS:CSI03:1,2009-12-09T17:00:00Z,29.4412,-92.0613,10.0,-2.737,11144222 
WAVCIS,ioos:station:WAVCIS:CSI03:1,2009-12-09T18:00:00Z,29.4412,-92.0613,10.0,-2.959,11144222 
WAVCIS,ioos:station:WAVCIS:CSI03:1,2009-12-09T19:00:00Z,29.4412,-92.0613,10.0,-2.995,11144222 
WAVCIS,ioos:station:WAVCIS:CSI03:1,2009-12-09T20:00:00Z,29.4412,-92.0613,10.0,-2.779,11144222 
WAVCIS,ioos:station:WAVCIS:CSI03:1,2009-12-09T21:00:00Z,29.4412,-92.0613,10.0,-2.956,11144222 
WAVCIS,ioos:station:WAVCIS:CSI03:1,2009-12-09T22:00:00Z,29.4412,-92.0613,10.0,-3.072,11144222 
WAVCIS,ioos:station:WAVCIS:CSI03:1,2009-12-09T23:00:00Z,29.4412,-92.0613,10.0,-3.466,11144222 
WAVCIS,ioos:station:WAVCIS:CSI03:1,2009-12-10T00:00:00Z,29.4412,-92.0613,10.0,-3.346,11144222 
WAVCIS,ioos:station:WAVCIS:CSI03:1,2009-12-10T01:00:00Z,29.4412,-92.0613,10.0,-3.188,11144222 
WAVCIS,ioos:station:WAVCIS:CSI03:1,2009-12-10T02:00:00Z,29.4412,-92.0613,10.0,-3.195,11144222 
WAVCIS,ioos:station:WAVCIS:CSI03:1,2009-12-10T03:00:00Z,29.4412,-92.0613,10.0,-3.23,11144222 
WAVCIS,ioos:station:WAVCIS:CSI03:1,2009-12-10T04:00:00Z,29.4412,-92.0613,10.0,-3.367,11144222 
WAVCIS,ioos:station:WAVCIS:CSI03:1,2009-12-10T05:00:00Z,29.4412,-92.0613,10.0,-3.406,11144222 
WAVCIS,ioos:station:WAVCIS:CSI03:1,2009-12-10T06:00:00Z,29.4412,-92.0613,10.0,-3.451,11144222 
WAVCIS,ioos:station:WAVCIS:CSI03:1,2009-12-10T07:00:00Z,29.4412,-92.0613,10.0,-3.517,11144222 
WAVCIS,ioos:station:WAVCIS:CSI03:1,2009-12-10T08:00:00Z,29.4412,-92.0613,10.0,-3.816,11144222 
WAVCIS,ioos:station:WAVCIS:CSI03:1,2009-12-10T09:00:00Z,29.4412,-92.0613,10.0,-3.906,11144222 
WAVCIS,ioos:station:WAVCIS:CSI03:1,2009-12-10T10:00:00Z,29.4412,-92.0613,10.0,-3.984,11144222 
WAVCIS,ioos:station:WAVCIS:CSI03:1,2009-12-10T11:00:00Z,29.4412,-92.0613,10.0,-4.076,11144222 
WAVCIS,ioos:station:WAVCIS:CSI03:1,2009-12-10T12:00:00Z,29.4412,-92.0613,10.0,-4.096,11144222 
WAVCIS,ioos:station:WAVCIS:CSI03:1,2009-12-10T13:00:00Z,29.4412,-92.0613,10.0,-4.109,11144222 
WAVCIS,ioos:station:WAVCIS:CSI03:1,2009-12-10T14:00:00Z,29.4412,-92.0613,10.0,-4.168,11144222 
WAVCIS,ioos:station:WAVCIS:CSI03:1,2009-12-10T15:00:00Z,29.4412,-92.0613,10.0,-4.302,11144222 
WAVCIS,ioos:station:WAVCIS:CSI03:1,2009-12-10T16:00:00Z,29.4412,-92.0613,10.0,-4.24,11144222 
WAVCIS,ioos:station:WAVCIS:CSI03:1,2009-12-10T17:00:00Z,29.4412,-92.0613,10.0,-4.208,11144222 
WAVCIS,ioos:station:WAVCIS:CSI03:1,2009-12-10T18:00:00Z,29.4412,-92.0613,10.0,-4.206,11144222 
WAVCIS,ioos:station:WAVCIS:CSI03:1,2009-12-10T19:00:00Z,29.4412,-92.0613,10.0,-4.219,11144222 
WAVCIS,ioos:station:WAVCIS:CSI03:1,2009-12-10T20:00:00Z,29.4412,-92.0613,10.0,-4.219,11144222 
WAVCIS,ioos:station:WAVCIS:CSI03:1,2009-12-10T21:00:00Z,29.4412,-92.0613,10.0,-4.27,11144222 
WAVCIS,ioos:station:WAVCIS:CSI03:1,2009-12-10T22:00:00Z,29.4412,-92.0613,10.0,-4.255,11144222 
WAVCIS,ioos:station:WAVCIS:CSI03:1,2009-12-10T23:00:00Z,29.4412,-92.0613,10.0,-4.335,11144222 
WAVCIS,ioos:station:WAVCIS:CSI03:1,2009-12-11T00:00:00Z,29.4412,-92.0613,10.0,-4.172,11144222 
WAVCIS,ioos:station:WAVCIS:CSI03:1,2009-12-11T01:00:00Z,29.4412,-92.0613,10.0,-4.135,11144222 
WAVCIS,ioos:station:WAVCIS:CSI03:1,2009-12-11T02:00:00Z,29.4412,-92.0613,10.0,-4.108,11144222 
WAVCIS,ioos:station:WAVCIS:CSI03:1,2009-12-11T03:00:00Z,29.4412,-92.0613,10.0,-4.162,11144222 
WAVCIS,ioos:station:WAVCIS:CSI03:1,2009-12-11T04:00:00Z,29.4412,-92.0613,10.0,-4.144,11144222 
WAVCIS,ioos:station:WAVCIS:CSI03:1,2009-12-11T05:00:00Z,29.4412,-92.0613,10.0,-4.278,11144222 
WAVCIS,ioos:station:WAVCIS:CSI03:1,2009-12-11T06:00:00Z,29.4412,-92.0613,10.0,-4.335,11144222 
WAVCIS,ioos:station:WAVCIS:CSI03:1,2009-12-11T07:00:00Z,29.4412,-92.0613,10.0,-4.184,11144222 
WAVCIS,ioos:station:WAVCIS:CSI03:1,2009-12-11T08:00:00Z,29.4412,-92.0613,10.0,-4.24,11144222 
WAVCIS,ioos:station:WAVCIS:CSI03:1,2009-12-11T09:00:00Z,29.4412,-92.0613,10.0,-4.171,11144222 
WAVCIS,ioos:station:WAVCIS:CSI03:1,2009-12-11T10:00:00Z,29.4412,-92.0613,10.0,-4.308,11144222 
WAVCIS,ioos:station:WAVCIS:CSI03:1,2009-12-11T11:00:00Z,29.4412,-92.0613,10.0,-4.326,11144222 